Regional Weather Roundup
Issued by NWS

Home | Current Version | Previous Version | Graphics & Text | Print | Product List | Glossary On
Versions: 1 2 3 4 5 6 7 8 9 10 11 12 13 14 15 16 17 18 19 20 21 22 23 24 25 26 27 28 29 30 31 32 33 34 35 36 37 38 39 40 41 42 43 44 45 46 47 48 49 50
000
ASUS43 KMKX 290321
RWRWI

WISCONSIN REGIONAL WEATHER ROUNDUP
NATIONAL WEATHER SERVICE MILWAUKEE/SULLIVAN WI
1000 PM CDT THU AUG 28 2014

NOTE: "FAIR" INDICATES FEW OR NO CLOUDS BELOW 12,000 FEET WITH NO
SIGNIFICANT WEATHER AND/OR OBSTRUCTIONS TO VISIBILITY.

WIZ001-002-006>008-014>016-023>028-290400-
NORTHWEST WISCONSIN

CITY           SKY/WX    TMP DP  RH WIND       PRES   REMARKS
SUPERIOR ARPT  CLOUDY    61  60  94 N3        29.97F
ASHLAND        CLOUDY    58  55  90 CALM      30.00F
HAYWARD        CLOUDY    65  61  87 S9        30.00F
SIREN          CLOUDY    65  62  90 SE6       29.96F
RICE LAKE      CLOUDY    64  61  90 E8        29.99F
LADYSMITH      DRIZZLE   65  63  91 E5        30.02F
EAU CLAIRE     LGT RAIN  65  64  97 SE9       29.97F
MENOMONIE      DRIZZLE   65  64  96 E8        29.98S
NEW RICHMOND   CLOUDY    65  64  94 SE12      29.95F
OSCEOLA        CLOUDY    66  65  99 E10       29.97F
$$

WIZ003>005-009-010-017-018-290400-
NORTH CENTRAL WISCONSIN

CITY           SKY/WX    TMP DP  RH WIND       PRES   REMARKS
WOODRUFF       CLOUDY    64  60  85 S10       30.05F
RHINELANDER    CLOUDY    62  59  90 S7        30.06F
EAGLE RIVER    CLOUDY    63  57  82 CALM      30.05F
LAND O LAKES   CLOUDY    63  59  86 S3        30.06F
PHILLIPS       LGT RAIN  64  61  91 SE6       30.02F
TOMAHAWK       LGT RAIN  61  59  92 SE6       30.05F
MEDFORD        LGT RAIN  62  60  96 SE10      30.03F
MERRILL        CLOUDY    63  61  96 SE8       30.04F
$$

WIZ029-030-035-036-043>047-290400-
CENTRAL WISCONSIN

CITY           SKY/WX    TMP DP  RH WIND       PRES   REMARKS
WAUSAU         CLOUDY    62  59  90 SE8       30.03F
MOSINEE        CLOUDY    61  59  94 SE6       30.06F
MARSHFIELD     LGT RAIN  62  59  90 SE8       30.03S
STEVENS POINT  CLOUDY    60  54  80 SE7       30.05F
WAUPACA        LGT RAIN  64  60  85 CALM      30.05F
WAUTOMA        RAIN      62  57  83 CALM      30.04F
WISC RAPIDS    LGT RAIN  61  58  90 SE8       30.04F
CAMP DOUGLAS   CLOUDY    62  62 100 E10       30.00F
$$

WIZ011>013-019>022-031-037>040-048>050-290400-
NORTHEAST WISCONSIN

CITY           SKY/WX    TMP DP  RH WIND       PRES   REMARKS
ANTIGO         CLOUDY    59  58  96 SE8       30.07F
STURGEON BAY   CLOUDY    61  54  77 SE7       30.08F
GREEN BAY      CLOUDY    63  56  78 SE6       30.07F
MANITOWOC      CLOUDY    64  60  87 SE6       30.08F
APPLETON       CLOUDY    64  55  72 VRB5      30.07F
CLINTONVILLE   CLOUDY    61  59  94 CALM      30.06F
OSHKOSH        CLOUDY    65  54  67 SE8       30.05F
$$

WIZ032>034-041-042-053>061-290400-
SOUTHWEST WISCONSIN

CITY           SKY/WX    TMP DP  RH WIND       PRES   REMARKS
LA CROSSE      CLOUDY    67  64  90 SE6       29.96S
SPARTA         CLOUDY    64  62  93 E7        29.99S
VIROQUA        CLOUDY    65  65 100 SE9       29.99R
BOSCOBEL       MOCLDY    71  58  63 VRB5      29.98S
PRAIRIE DU CHI CLOUDY    70  61  74 SE6       29.97R
PLATTEVILLE    MOCLDY    66  61  84 E12       30.00S
$$

WIZ056-057-062-063-064-067-068-290400-
SOUTH CENTRAL WISCONSIN

CITY           SKY/WX    TMP DP  RH WIND       PRES   REMARKS
BARABOO/DELLS  CLOUDY    64  53  66 E8        30.01F
LONE ROCK      CLOUDY    71  57  61 E9        29.99F
WATERTOWN      CLOUDY    63  58  83 E3        30.03F
MADISON        CLOUDY    65  55  70 SE12      30.02F
MIDDLETON      CLOUDY    67  55  64 SE12      30.02F
MONROE         CLOUDY    63  57  82 E7        30.01F
JANESVILLE     CLOUDY    64  57  77 E6        30.03F
$$

WIZ051-052-058>065-066-070>072-290400-
SOUTHEAST WISCONSIN

CITY           SKY/WX    TMP DP  RH WIND       PRES   REMARKS
MILWAUKEE      CLOUDY    66  59  78 E10       30.06F
WAUKESHA       CLOUDY    63  54  72 E8        30.06F
MILWAUKEE/TIMM CLOUDY    64  54  68 E7        30.06F
RACINE         CLOUDY    69  60  73 E12       30.07F
BURLINGTON     CLOUDY    63  58  86 E7        30.04F
KENOSHA        CLOUDY    67  61  81 E8        30.05F
FOND DU LAC    CLOUDY    63  54  72 SE5       30.05F
SHEBOYGAN      CLOUDY    63  57  81 E5        30.07F
WEST BEND      CLOUDY    61  54  77 CALM      30.06F
JUNEAU         CLOUDY    62  55  79 E8        30.05F
$$

LSZ147-162-290400-
LAKE SUPERIOR

STATION/POSITION TIME  TEMP    WIND        PRES    WAVE
                       AIR SEA DIR/SP/G            HT/PER
                 (UTC) (F)     (DEG/KT/KT) (MB)    (FT/S)
W MID LAKE BUOY  0250   61 58  120/ 10/ 12 1015.6F   0
DEVILS ISLAND    0300   63     140/  9/ 10 1015.4F
PORT WING        0200   64     120/  4/  9 1015.6F
SAXON HARBOR     0200   62     200/  1/  3 1016.3R
$$

LMZ867-665-643>646-290400-
LAKE MICHIGAN

STATION/POSITION TIME  TEMP    WIND        PRES    WAVE
                       AIR SEA DIR/SP/G            HT/PER
                 (UTC) (F)     (DEG/KT/KT) (MB)    (FT/S)
N MID LAKE BUOY  0250   65 66  130/  8/ 10 1019.1F   0
NORTHPORT PIER   0200   65     130/  9/ 12 1019.0S
SISTER BAY       0211   61     140/  7/  9   N/A
ALGOMA LAKESHORE 0208          160/  9/ 10   N/A
KEWAUNEE LAKESHO 0200   64     140/  6/  9 1017.9F
SHEBOYGAN LAKESH 0300   66 67   90/ 12/ 13 1018.2F
ATWATER BUOY     0300   68     110/ 12/ 16 1018.5F
MILWAUKEE LAKESH 0300   67      90/ 13/ 14   N/A
S MID LAKE BUOY  0250   69 69  100/ 14/ 16 1017.9F   1/ 3
KENOSHA   LAKESH 0300   70     110/ 12/ 14 1016.9F
$$

TC  - TEMPERATURE IN CELSIUS
VSB - VISIBILITY IN STATUTE MILES
WCI - WIND CHILL INDEX
HX  - HEAT INDEX



USA.gov is the U.S. government's official web portal to all federal, state and local government web resources and services.